Change the Weather History Date:

Tuesday, October 1, 2013

  Actual Average Record
Temperature  
Mean Temperature 53 °F 53 °F  
Max Temperature 56 °F 63 °F 78 °F (1987)
Min Temperature 49 °F 44 °F 30 °F (1950)
Degree Days  
Heating Degree Days 12 12  
Month to date heating degree days 12 12  
Cooling Degree Days 0 0  
Month to date cooling degree days 0 0  
Year to date cooling degree days 95 42  
Growing Degree Days 2 (Base 50)    
Moisture  
Dew Point 45 °F    
Average Humidity 80    
Maximum Humidity 93    
Minimum Humidity 66    
Precipitation  
Precipitation 0.26 in 0.07 in 1.34 in (1981)
Month to date precipitation 0.26 0.07  
Year to date precipitation 20.76 22.20  
Sea Level Pressure  
Sea Level Pressure 30.00 in    
Wind  
Wind Speed 9 mph (SSE)    
Max Wind Speed 17 mph    
Max Gust Speed 23 mph    
Visibility 10 miles    
Events Rain    
T = Trace of Precipitation, MM = Missing Value Source: NWS Daily Summary

Daily Weather History Graph

Daily Weather History Graph

Search for Another Location

Airport or City:

Trip Planner

Search our weather history database for the weather conditions in past years. The results will help you decide how hot, cold, wet, or windy it might be!

Date:

Astronomy

Oct. 01, 2013 Rise Set
Actual Time 7:10 AM PDT 6:48 PM PDT
Civil Twilight 6:38 AM PDT 7:19 PM PDT
Nautical Twilight 6:02 AM PDT 7:56 PM PDT
Astronomical Twilight 5:24 AM PDT 8:33 PM PDT
Moon 3:35 AM PDT (10/1) 5:06 PM PDT (10/1)
Length of Visible Light 12h 40m
Length of Day
11h 38m
Waning Crescent, 11% of the Moon is Illuminated
Oct 1
Waning Crescent
Oct 4
New
Oct 11
First Quarter
Oct 18
Full
Oct 26
Last Quarter

Hourly Weather History & Observations

Time (PDT) Temp. Dew Point Humidity Pressure Visibility Wind Dir Wind Speed Gust Speed Precip Events Conditions
12:53 AM 51.1 °F 46.0 °F 83% 29.90 in 10.0 mi SSE 10.4 mph - N/A   Scattered Clouds
1:53 AM 51.1 °F 44.1 °F 77% 29.91 in 10.0 mi SSE 13.8 mph 19.6 mph N/A   Overcast
2:53 AM 50.0 °F 44.1 °F 80% 29.92 in 10.0 mi SSE 8.1 mph - 0.00 in Rain Light Rain
3:53 AM 50.0 °F 44.1 °F 80% 29.91 in 10.0 mi SSE 8.1 mph - 0.01 in   Overcast
4:53 AM 50.0 °F 45.0 °F 83% 29.92 in 7.0 mi SSE 4.6 mph - 0.02 in Rain Light Rain
5:09 AM 50.0 °F 44.6 °F 82% 29.90 in 10.0 mi SSE 5.8 mph - 0.00 in Rain Light Rain
5:33 AM 48.2 °F 42.8 °F 82% 29.90 in 10.0 mi SSE 11.5 mph - 0.00 in   Mostly Cloudy
5:53 AM 48.9 °F 43.0 °F 80% 29.92 in 10.0 mi SE 11.5 mph - 0.00 in   Partly Cloudy
6:53 AM 48.9 °F 43.0 °F 80% 29.93 in 10.0 mi SE 10.4 mph - N/A   Overcast
7:53 AM 48.9 °F 44.1 °F 83% 29.94 in 10.0 mi SSE 6.9 mph - N/A   Overcast
8:07 AM 50.0 °F 44.6 °F 82% 29.92 in 10.0 mi SSE 9.2 mph - N/A   Overcast
8:53 AM 50.0 °F 43.0 °F 77% 29.95 in 10.0 mi SSE 12.7 mph - N/A   Overcast
9:53 AM 51.1 °F 44.1 °F 77% 29.96 in 10.0 mi SSE 8.1 mph - N/A   Overcast
10:53 AM 52.0 °F 44.1 °F 74% 29.98 in 10.0 mi SSE 12.7 mph 21.9 mph N/A   Overcast
11:53 AM 53.1 °F 44.1 °F 71% 29.99 in 10.0 mi SSE 13.8 mph - N/A   Overcast
12:00 PM 53.6 °F 44.6 °F 72% 29.98 in 10.0 mi SSE 10.4 mph 21.9 mph N/A   Overcast
12:53 PM 53.1 °F 45.0 °F 74% 30.01 in 10.0 mi SSE 11.5 mph - N/A   Overcast
1:53 PM 55.0 °F 45.0 °F 69% 30.02 in 10.0 mi SSE 6.9 mph - 0.00 in   Mostly Cloudy
2:53 PM 55.0 °F 45.0 °F 69% 30.03 in 10.0 mi SSE 8.1 mph - N/A   Scattered Clouds
3:53 PM 55.0 °F 44.1 °F 67% 30.04 in 10.0 mi SSE 8.1 mph - N/A   Mostly Cloudy
4:53 PM 54.0 °F 45.0 °F 72% 30.04 in 10.0 mi ESE 9.2 mph - N/A   Overcast
5:21 PM 51.8 °F 46.4 °F 82% 30.03 in 6.0 mi SSE 8.1 mph - 0.02 in Rain Light Rain
5:29 PM 51.8 °F 48.2 °F 88% 30.03 in 7.0 mi SSE 4.6 mph - 0.03 in Rain Light Rain
5:36 PM 51.8 °F 48.2 °F 88% 30.03 in 8.0 mi SSE 5.8 mph - 0.04 in Rain Light Rain
5:53 PM 52.0 °F 46.9 °F 83% 30.05 in 10.0 mi SE 8.1 mph - 0.04 in   Overcast
6:00 PM 51.8 °F 46.4 °F 82% 30.03 in 10.0 mi SSE 5.8 mph - 0.00 in Rain Light Rain
6:53 PM 50.0 °F 46.9 °F 89% 30.06 in 10.0 mi NE 4.6 mph - 0.02 in Rain Light Rain
7:49 PM 48.2 °F 46.4 °F 93% 30.05 in 9.0 mi Variable 3.5 mph - 0.04 in Rain Light Rain
7:53 PM 48.9 °F 46.0 °F 90% 30.08 in 10.0 mi NW 5.8 mph - 0.04 in Rain Light Rain
8:01 PM 48.2 °F 46.4 °F 93% 30.06 in 8.0 mi NW 11.5 mph - 0.01 in Rain Light Rain
8:53 PM 48.9 °F 46.9 °F 93% 30.08 in 10.0 mi Calm Calm - 0.07 in   Overcast
9:53 PM 48.9 °F 46.9 °F 93% 30.09 in 10.0 mi Calm Calm - N/A   Overcast
10:53 PM 52.0 °F 46.9 °F 83% 30.10 in 10.0 mi SSE 9.2 mph - 0.00 in Rain Light Rain
11:34 PM 51.8 °F 46.4 °F 82% 30.08 in 10.0 mi SSE 12.7 mph 18.4 mph 0.00 in   Overcast
11:53 PM 52.0 °F 46.9 °F 83% 30.10 in 10.0 mi SSE 10.4 mph - 0.00 in   Overcast